Location: Newark
(45.5000°N, 11.4167°E)
Time: 05:17:41
(UTC+00:00)

Vanguard 2 - Pass Details

Date: 26 August 2019
Orbit: 554 x 2937 km, 32.9° (Epoch: 19 September)

Event Time Altitude Azimuth Distance (km) Brightness Sun altitude
Rises 12:41:05 0° 245° (WSW) 3,324 11.3 50.5°
Reaches altitude 10° 12:43:25 10° 234° (SW) 2,611 11.1 50.3°
Maximum altitude 12:48:58 32° 173° (S) 1,962 10.6 49.7°
Drops below altitude 10° 12:57:24 10° 115° (ESE) 4,044 11.2 48.8°
Sets 13:02:00 0° 108° (ESE) 5,470 11.7 48.2°
